This demonstration page uses our WeatherBlox Daily Observations layout. Learn more.

Left ArrowRight Arrow

Hourly Observations for February 2, 2017

Temp ( °F °C ) Dew Point ( °F °C ) Humidity (%) Winds ( mph kmh ) Pressure ( in mb ) Visibility ( mi km ) Precip ( " mm )
12:53 am 00:53 Clear 36 2.2 25 -3.9 64 64 WNW 6 9 30.21 1023 10 16 N/A
1:53 am 01:53 Mostly Cloudy 35 1.7 24 -4.4 64 64 WNW 7 11 30.23 1024 10 16 N/A
2:53 am 02:53 Clear 32 undefined 24 -4.4 73 73 WNW 5 7 30.24 1024 10 16 N/A
3:53 am 03:53 Clear 31 -0.6 23 -5 72 72 WNW 7 11 30.25 1024 10 16 N/A
4:53 am 04:53 Clear 29 -1.7 19 -7.2 66 66 NW 9 15 30.27 1025 10 16 N/A
5:53 am 05:53 Clear 29 -1.7 19 -7.2 66 66 WNW 13 20 30.28 1026 10 16 N/A
6:53 am 06:53 Clear 28 -2.2 19 -7.2 69 69 WNW 8 13 30.32 1027 10 16 N/A
7:53 am 07:53 Sunny 28 -2.2 19 -7.2 69 69 WNW 6 9 30.34 1028 10 16 N/A
8:53 am 08:53 Sunny 28 -2.2 18 -7.8 66 66 WNW 9 15 30.37 1028 10 16 N/A
9:53 am 09:53 Sunny 28 -2.2 18 -7.8 66 66 WNW 13 20 30.37 1029 10 16 N/A
10:53 am 10:53 Sunny 31 -0.6 20 -6.7 64 64 NW 9 15 30.39 1029 10 16 N/A
11:44 am 11:44 Mostly Cloudy 32 undefined 19 -7.2 59 59 WNW 10 17 30.42 1030 10 16 N/A
11:53 am 11:53 Partly Cloudy 32 undefined 19 -7.2 59 59 WNW 10 17 30.41 1030 10 16 N/A
12:53 pm 12:53 Sunny 34 1.1 15 -9.4 46 46 W 12 19 30.39 1029 10 16 N/A
1:53 pm 13:53 Sunny 36 2.2 15 -9.4 42 42 WNW 12 19 30.36 1028 10 16 N/A
2:53 pm 14:53 Sunny 36 2.2 12 -11.1 37 37 WNW 9 15 30.35 1028 10 16 N/A
3:53 pm 15:53 Sunny 34 1.1 11 -11.7 38 38 NW 12 19 30.36 1028 10 16 N/A
4:53 pm 16:53 Sunny 33 0.6 11 -11.7 40 40 NW 8 13 30.38 1029 10 16 N/A
5:53 pm 17:53 Sunny 31 -0.6 10 -12.2 42 42 NW 9 15 30.39 1029 10 16 N/A
6:53 pm 18:53 Clear 29 -1.7 10 -12.2 45 45 NW 9 15 30.39 1029 10 16 N/A
7:53 pm 19:53 Clear 28 -2.2 9 -12.8 44 44 WNW 6 9 30.39 1029 10 16 N/A
8:53 pm 20:53 Clear 25 -3.9 11 -11.7 55 55 WNW 3 6 30.40 1029 10 16 N/A
9:53 pm 21:53 Clear 26 -3.3 13 -10.6 57 57 NW 7 11 30.39 1029 10 16 N/A
10:53 pm 22:53 Clear 25 -3.9 13 -10.6 60 60 NNW 6 9 30.39 1029 10 16 N/A
11:53 pm 23:53 Clear 24 -4.4 14 -10 65 65 NW 5 7 30.39 1029 10 16 N/A

Powered by AerisWeather